Flag for Hong Kong Weather past 2 weeks in Kowloon, Hong Kong

Now
64 °F

Fog.


Feels Like: 64 °F
Forecast: 63 / 72 °F
Wind: 7 mph from North

Location: National Airport

Current Time: Mar 6, 2015 at 10:46:09 PM

Latest Report: Mar 6, 2015 at 10:00 PM


Visibility: 1 mi

Pressure: 30.04 "Hg

Humidity: 88%

Dew point: 61 °F

Location of KowloonLocation

Historic Weather in Kowloon — Graph

°F

Kowloon temperature yesterday

Maximum temperature yesterday: 72 °F (at 12:30 PM)
Minimum temperature yesterday: 63 °F (at 12:00 AM)
Average temperature yesterday: 65 °F

Past Weeks' High & Low Weather Summary

 TemperatureHumidityPressure
High82 °F (Feb 26, 1:30 PM)94% (Feb 22, 6:00 AM)30.18 "Hg (Feb 22, 6:00 AM)
Low63 °F (Feb 19, 11:30 PM)53% (Mar 1, 8:30 PM)29.80 "Hg (Mar 3, 3:00 PM)
Average69 °F82%29.98 "Hg
* Reported Feb 19 10:00 PM — Mar 6 10:00 PM, Kowloon, Weather by CustomWeather, © 2015

Note: Actual official high and low records may vary slightly from our data, if they occured in-between our weather recording intervals... More about our weather records

Advertising

Kowloon weather history for previous 24 hours

 ConditionsComfort  
Time TempWeatherWind HumidityBarometerVisibility
10:00 PM
Fri, Mar 6
64 °FFog.7 mph88%30.04 "Hg1 mi
9:30 PM63 °FDrizzle. Fog.7 mph94%30.04 "Hg1 mi
9:00 PM63 °FDrizzle. Fog.8 mph94%30.04 "Hg1 mi
8:30 PM63 °FDrizzle. Fog.8 mph94%30.04 "Hg1 mi
8:00 PM63 °FDrizzle. Fog.9 mph94%30.01 "Hg1 mi
7:30 PM63 °FDrizzle. Fog.10 mph94%30.01 "Hg1 mi
7:00 PM63 °FDrizzle. Fog.12 mph94%30.01 "Hg2 mi
6:30 PM63 °FDrizzle. Fog.13 mph94%29.98 "Hg2 mi
6:00 PM63 °FDrizzle. Fog.12 mph94%29.98 "Hg1 mi
5:30 PM63 °FMild.10 mph94%29.98 "Hg1 mi
5:00 PM63 °FMild.10 mph94%29.98 "Hg1 mi
4:30 PM63 °FMild.9 mph94%29.98 "Hg1 mi
4:00 PM63 °FSleet. Cloudy.9 mph94%29.98 "Hg1 mi
3:30 PM63 °FDrizzle. Fog.10 mph94%30.01 "Hg1 mi
3:00 PM63 °FDrizzle. Fog.8 mph94%30.01 "Hg1 mi
2:30 PM63 °FSleet. Cloudy.9 mph94%30.01 "Hg1 mi
2:00 PM63 °FSleet. Cloudy.9 mph94%30.04 "Hg1 mi
1:30 PM64 °FFog.9 mph88%30.04 "Hg1 mi
1:00 PM64 °FFog.9 mph88%30.04 "Hg2 mi
12:30 PM64 °FScattered clouds.10 mph88%30.04 "HgN/A
12:00 PM66 °FScattered clouds.14 mph83%30.07 "Hg6 mi
11:30 AM66 °FScattered clouds.15 mph83%30.07 "Hg5 mi
11:00 AM66 °FScattered clouds.15 mph83%30.07 "Hg5 mi
10:30 AM66 °FScattered clouds.15 mph83%30.07 "Hg4 mi
10:00 AM66 °FScattered clouds.16 mph83%30.07 "Hg4 mi
9:30 AM64 °FScattered clouds.14 mph88%30.07 "Hg5 mi
9:00 AM66 °FScattered clouds.14 mph83%30.07 "Hg5 mi
8:30 AM64 °FScattered clouds.13 mph88%30.04 "Hg4 mi
8:00 AM64 °FScattered clouds.17 mph88%30.04 "Hg4 mi
7:30 AM64 °FScattered clouds.15 mph88%30.04 "Hg3 mi
7:00 AM64 °FFog.16 mph88%30.01 "Hg3 mi
6:30 AM64 °FPassing clouds.16 mph88%30.01 "Hg4 mi
6:00 AM64 °FPassing clouds.15 mph88%29.98 "Hg3 mi
5:30 AM64 °FPassing clouds.13 mph88%29.98 "Hg3 mi
5:00 AM64 °FPassing clouds.15 mph88%29.98 "Hg4 mi
4:30 AM64 °FPassing clouds.14 mph88%29.98 "Hg3 mi
4:00 AM64 °FPassing clouds.15 mph88%29.98 "Hg4 mi
3:30 AM64 °FPassing clouds.14 mph88%29.98 "Hg4 mi
3:00 AM64 °FPassing clouds.15 mph88%29.98 "Hg6 mi
2:30 AM64 °FPassing clouds.15 mph88%29.98 "Hg5 mi
2:00 AM64 °FPassing clouds.16 mph88%29.98 "Hg6 mi
1:30 AM64 °FPassing clouds.15 mph88%29.98 "Hg6 mi
1:00 AM64 °FPassing clouds.17 mph88%30.01 "Hg6 mi
12:30 AM64 °FPassing clouds.15 mph88%30.01 "Hg6 mi
12:00 AM64 °FPassing clouds.17 mph88%30.01 "Hg6 mi
11:30 PM
Thu, Mar 5
66 °FPassing clouds.17 mph83%30.01 "Hg6 mi
11:00 PM64 °FPassing clouds.18 mph88%30.01 "Hg6 mi
10:30 PM64 °FPassing clouds.16 mph88%30.01 "Hg6 mi
10:00 PM64 °FPassing clouds.14 mph88%30.01 "Hg6 mi
Weather by CustomWeather, © 2015

See weather overviewHow to use our weather pages